STARLINK-1527, 46048

Orbit data source: Space-Track

STARLINK-1527, 46048 is a payload satellite owned by SpaceX/Seattle (US) in LEO that was launched on Fri, 07 Aug 2020 UTC via an FALCON 9 launch vehicle from the Air Force Eastern Test Range (AFETR). Payload-class satellites include a variety of spacecraft equipped with specific instruments for various scientific and technological missions. These include communications satellites like Starlink; space stations such as the ISS; scientific satellites like the Hubble; Earth observation satellites from companies like Planet Labs, Umbra, and HawkEye 360; GPS; miniature CubeSats for education and research; and military/defense satellites.

Loading next visibility...
Identifier
46048, 2020-055X
Orbit
LEO
Country
Flag of USUS
Related business
Manufacturer
SpaceX/Seattle
Mission
Operational Commercial Communications
Bus & Motor
STARLINK, Unknown motor
Mass
260 kg wet, ~248 kg dry
Launch date (UTC)
2020-08-07 (5 years ago)
Launch vehicle
FALCON 9
Launch site
Air Force Eastern Test Range (AFETR)
Object type
Payload
Rocket body
Debris
Shape & HBR
Box + 1 Pan, 10.1 m
Radar Cross Section
13.562 m², Large (>1 m²)

Expand to show TLE details & history
Last TLE update: 11 hours ago

TLE from 11 hours ago
0 STARLINK-1527
1 46048U 20055X   26035.82545909  .00000376  00000-0  44174-4 0  9992
2 46048  53.0576 264.1522 0001792  92.2520 267.8674 15.06389685304054
Epoch: 2026-02-04T19:48Z
TLE epoch observation values (Epoch: 2026-02-04T19:48:39.665Z)
Latitude
-0.00003°
Longitude
-167.99958°
Altitude
548.169 km
Speed
7.589 km/s
True Right ascension
17h 36m 36s
True Declination
0° 00' 00"
Sunlit
Object was in daylight at epoch
Visualization orbit readout
Latitude
Unknown
Longitude
Unknown
Altitude
Unknown
Speed
Unknown
Apparent Right ascension
Unknown
Apparent Declination
Unknown
Sunlit
N/A
Visualization observer readout
Local Sidereal Time
08:44:27
Azimuth
Unknown
Elevation
Unknown
Doppler factor
Unknown
Orbital elements
Apogee altitude
548.754 km
Perigee altitude
546.272 km
Semi-major axis
6,925.65 km
Eccentricity
0.00018
Inclination
53.0576°
RAAN
264.1522°
Arg. of periapsis
92.252°
True anomaly
267.84688°
Mean anomaly
267.8674°
Eccentric anomaly
267.85714°
Mean motion
3.76576 °/min
Orbital period
95.6 mins
BSTAR
0.000044174
Loading maneuver chart data...
Computing Atmospheric mass density...
Loading historical data...
Loading historical data...
Loading historical data...
Loading historical data...
Loading historical data...
Loading historical data...
Loading historical data...

Documentation

Showing up to 5 results
|